Weather History for LKCV - December, 2012

Change the Weather History Date:

Sunday, December 23, 2012

  Actual Average Record
Temperature  
Mean Temperature 34 °F -  
Max Temperature 35 °F - - ()
Min Temperature 32 °F - - ()
Degree Days  
Heating Degree Days 32    
Moisture  
Dew Point 30 °F    
Average Humidity 88    
Maximum Humidity 100    
Minimum Humidity 80    
Precipitation  
Precipitation 0.00 in - - ()
Sea Level Pressure  
Sea Level Pressure 29.88 in    
Wind  
Wind Speed 8 mph ()    
Max Wind Speed 15 mph    
Max Gust Speed -    
Visibility 3.8 miles    
Events Rain , Snow    
T = Trace of Precipitation, MM = Missing Value Source: Averaged Metar Reports

Daily Weather History Graph

Daily Weather History Graph

Search for Another Location

Airport or City:

Trip Planner

Search our weather history database for the weather conditions in past years. The results will help you decide how hot, cold, wet, or windy it might be!

Date:

Astronomy

Dec. 23, 2012 Rise Set
Actual Time 7:55 AM CET 4:00 PM CET
Civil Twilight 7:16 AM CET 4:38 PM CET
Nautical Twilight 6:35 AM CET 5:20 PM CET
Astronomical Twilight 5:55 AM CET 5:59 PM CET
Moon 12:54 PM CET (12/23) 3:06 AM CET (12/23)
Length of Visible Light 9h 22m
Length of Day
8h 05m
Waxing Gibbous, 79% of the Moon is Illuminated
Dec 23
Waxing Gibbous
Dec 28
Full
Jan 5
Last Quarter
Jan 11
New
Jan 19
First Quarter

Hourly Weather History & Observations

Time (CET) Temp. Windchill Dew Point Humidity Pressure Visibility Wind Dir Wind Speed Gust Speed Precip Events Conditions
12:00 AM 33.8 °F 27.7 °F 28.4 °F 81% 29.98 in 3.1 mi ESE 6.9 mph - N/A   Mostly Cloudy
1:00 AM 33.8 °F 28.6 °F 28.4 °F 81% 29.98 in 3.7 mi SE 5.8 mph - N/A   Overcast
2:00 AM 32.0 °F 24.8 °F 28.4 °F 87% 29.95 in 4.3 mi SE 8.1 mph - N/A   Unknown
3:00 AM 32.0 °F 22.1 °F 26.6 °F 80% 29.95 in 4.3 mi SE 13.8 mph - N/A   Overcast
4:00 AM 32.0 °F 23.6 °F 26.6 °F 80% 29.95 in 3.7 mi SE 10.4 mph - N/A Snow Light Snow
5:00 AM 32.0 °F 22.1 °F 28.4 °F 87% 29.92 in 3.7 mi SSE 13.8 mph - N/A Rain , Snow Rain
6:00 AM 32.0 °F 21.6 °F 26.6 °F 80% 29.89 in 4.3 mi SSE 15.0 mph - N/A Rain Rain
7:00 AM 32.0 °F 21.6 °F 26.6 °F 80% 29.89 in 3.7 mi SSE 15.0 mph - N/A   Light Ice Pellets
8:00 AM 32.0 °F 22.1 °F 26.6 °F 80% 29.89 in 3.7 mi SSE 13.8 mph - N/A Rain , Snow Light Rain
9:00 AM 32.0 °F 22.5 °F 26.6 °F 80% 29.89 in 3.1 mi SSE 12.7 mph - N/A Rain , Snow Light Rain
10:00 AM 32.0 °F 23.6 °F 26.6 °F 80% 29.89 in 6.2 mi SE 10.4 mph - N/A Rain , Snow Light Rain
11:00 AM 33.8 °F 25.3 °F 28.4 °F 81% 29.89 in 6.2 mi SSE 11.5 mph - N/A Rain , Snow Light Rain
12:00 PM 33.8 °F 24.8 °F 28.4 °F 81% 29.86 in 6.2 mi SSE 12.7 mph - N/A   Light Ice Pellets
1:00 PM 33.8 °F 26.4 °F 28.4 °F 81% 29.83 in 5.0 mi SSE 9.2 mph - N/A Rain Light Rain
2:00 PM 33.8 °F 24.8 °F 30.2 °F 87% 29.83 in 4.3 mi SSE 12.7 mph - N/A Rain Light Rain
3:00 PM 33.8 °F 25.8 °F 30.2 °F 87% 29.83 in 4.3 mi SE 10.4 mph - N/A Rain Light Rain
4:00 PM 33.8 °F 27.0 °F 32.0 °F 93% 29.83 in 4.3 mi SE 8.1 mph - N/A Rain Light Rain
5:00 PM 35.6 °F 29.9 °F 32.0 °F 87% 29.83 in 5.0 mi ESE 6.9 mph - N/A Rain Light Rain
6:00 PM 35.6 °F 31.7 °F 33.8 °F 93% 29.83 in 5.0 mi ESE 4.6 mph - N/A Rain Light Rain
7:00 PM 35.6 °F 32.8 °F 35.6 °F 100% 29.83 in 5.0 mi SE 3.5 mph - N/A Rain Light Rain
7:35 PM 35.6 °F - 33.8 °F 93% 29.83 in 2.2 mi Variable 1.2 mph - N/A Rain Light Rain
8:00 PM 33.8 °F - 33.8 °F 100% 29.86 in 2.2 mi West 2.3 mph - N/A Rain Light Rain
8:20 PM 33.8 °F - 33.8 °F 100% 29.86 in 0.9 mi WNW 2.3 mph - N/A Rain Light Rain
9:00 PM 33.8 °F 30.8 °F 33.8 °F 100% 29.86 in 0.6 mi WNW 3.5 mph - N/A Rain Light Rain
10:00 PM 33.8 °F - 33.8 °F 100% 29.86 in 0.9 mi Variable 1.2 mph - N/A Rain Light Rain
11:00 PM 33.8 °F - 33.8 °F 100% 29.86 in 3.1 mi Calm Calm - N/A   Overcast